Berlin, NH

3:40 PM EDT on August 20, 2017 (GMT -0400)
Berlin Municipal

Weather History for KBML - December, 2010

Change the Weather History Date:

Tuesday, December 21, 2010

  Actual Average Record
Temperature  
Mean Temperature 24 °F -  
Max Temperature 30 °F 26 °F 46 °F (2012)
Min Temperature 19 °F 7 °F -27 °F (2004)
Degree Days  
Heating Degree Days 40    
Moisture  
Dew Point 20 °F    
Average Humidity 80    
Maximum Humidity 86    
Minimum Humidity 72    
Precipitation  
Precipitation 0.00 in - - ()
Sea Level Pressure  
Sea Level Pressure 29.80 in    
Wind  
Wind Speed 7 mph (NW)    
Max Wind Speed 10 mph    
Max Gust Speed 17 mph    
Visibility 6 miles    
Events Snow    
Averages and records for this station are not official NWS values.
T = Trace of Precipitation, MM = Missing Value Source: NWS Daily Summary

Daily Weather History Graph

Daily Weather History Graph

Search for Another Location

Airport or City:

Trip Planner

Search our weather history database for the weather conditions in past years. The results will help you decide how hot, cold, wet, or windy it might be!

Date:

Astronomy

Dec. 21, 2010 Rise Set
Actual Time 7:18 AM EST 4:07 PM EST
Civil Twilight 6:44 AM EST 4:40 PM EST
Nautical Twilight 6:07 AM EST 5:17 PM EST
Astronomical Twilight 5:32 AM EST 5:53 PM EST
Moon 4:36 PM EST (12/21) 7:33 AM EST (12/21)
Length of Visible Light 9h 56m
Length of Day
8h 49m
Full, 100% of the Moon is Illuminated
Dec 21
Full
Dec 27
Last Quarter
Jan 4
New
Jan 12
First Quarter
Jan 19
Full

Hourly Weather History & Observations

Time (EST) Temp. Windchill Dew Point Humidity Pressure Visibility Wind Dir Wind Speed Gust Speed Precip Events Conditions
12:52 AM 19.9 °F 10.1 °F 15.1 °F 81% 29.85 in 8.0 mi NNW 8.1 mph - N/A   Overcast
1:52 AM 19.9 °F 11.1 °F 15.1 °F 81% 29.85 in 10.0 mi NNW 6.9 mph - N/A   Overcast
2:52 AM 21.0 °F 10.6 °F 16.0 °F 81% 29.84 in 10.0 mi NNW 9.2 mph - N/A   Overcast
3:24 AM 21.2 °F 11.7 °F 15.8 °F 80% 29.77 in 2.5 mi NNW 8.1 mph - 0.00 in Snow Light Snow
3:30 AM 21.2 °F 12.6 °F 15.8 °F 80% 29.77 in 1.5 mi NNW 6.9 mph - 0.00 in Snow Light Snow
3:52 AM 21.0 °F 12.4 °F 17.1 °F 85% 29.83 in 1.2 mi NNW 6.9 mph - 0.00 in Snow Light Snow
4:00 AM 21.2 °F 16.4 °F 17.6 °F 86% 29.77 in 2.0 mi Variable 3.5 mph - 0.00 in Snow Light Snow
4:29 AM 21.2 °F 13.6 °F 17.6 °F 86% 29.76 in 2.5 mi Variable 5.8 mph - 0.00 in Snow Light Snow
5:17 AM 21.2 °F 13.6 °F 15.8 °F 80% 29.77 in 2.5 mi NW 5.8 mph - 0.00 in Snow Light Snow
5:24 AM 21.2 °F 16.4 °F 15.8 °F 80% 29.76 in 1.8 mi NNW 3.5 mph - 0.00 in Snow Light Snow
5:40 AM 21.2 °F 12.6 °F 17.6 °F 86% 29.76 in 3.0 mi NW 6.9 mph - 0.00 in Snow Light Snow
5:52 AM 21.9 °F 12.5 °F 17.1 °F 82% 29.83 in 9.0 mi NW 8.1 mph - 0.00 in   Overcast
6:52 AM 23.0 °F 13.9 °F 17.1 °F 78% 29.83 in 9.0 mi NNW 8.1 mph - 0.00 in   Overcast
7:02 AM 23.0 °F 14.7 °F 17.6 °F 80% 29.78 in 3.0 mi NW 6.9 mph - 0.00 in Snow Light Snow
7:52 AM 23.0 °F 13.1 °F 17.1 °F 78% 29.85 in 10.0 mi NNW 9.2 mph - 0.00 in   Overcast
8:18 AM 23.0 °F 14.7 °F 17.6 °F 80% 29.79 in 2.5 mi NNW 6.9 mph - 0.00 in Snow Light Snow
8:25 AM 24.8 °F 16.1 °F 17.6 °F 74% 29.79 in 7.0 mi NNW 8.1 mph - 0.00 in   Overcast
8:52 AM 24.1 °F 13.7 °F 17.1 °F 75% 29.85 in 10.0 mi NW 10.4 mph 16.1 mph 0.00 in   Overcast
9:52 AM 24.1 °F 15.2 °F 18.0 °F 77% 29.85 in 6.0 mi NNW 8.1 mph - 0.00 in Snow Light Snow
10:37 AM 24.8 °F 19.1 °F 19.4 °F 80% 29.77 in 2.5 mi NNW 4.6 mph - 0.00 in Snow Light Snow
10:52 AM 26.1 °F 17.6 °F 19.0 °F 75% 29.82 in 3.0 mi NNW 8.1 mph - 0.00 in Snow Light Snow
11:52 AM 27.0 °F 21.6 °F 19.9 °F 75% 29.80 in 9.0 mi NW 4.6 mph - 0.00 in   Overcast
12:52 PM 28.9 °F 25.2 °F 21.0 °F 72% 29.76 in 10.0 mi Variable 3.5 mph - N/A   Overcast
1:52 PM 30.0 °F 26.5 °F 21.9 °F 72% 29.76 in 10.0 mi Variable 3.5 mph - N/A   Overcast
2:52 PM 30.0 °F 21.7 °F 21.9 °F 72% 29.78 in 4.0 mi NW 9.2 mph - 0.00 in Snow Light Snow
3:52 PM 28.9 °F 23.9 °F 21.9 °F 75% 29.79 in 6.0 mi NW 4.6 mph - 0.00 in Snow Light Snow
4:52 PM 28.9 °F 23.9 °F 21.9 °F 75% 29.81 in 10.0 mi NW 4.6 mph - 0.00 in   Overcast
5:52 PM 28.9 °F 22.8 °F 23.0 °F 78% 29.82 in 7.0 mi NW 5.8 mph - 0.00 in Snow Light Snow
6:09 PM 28.4 °F 22.2 °F 24.8 °F 86% 29.77 in 3.0 mi NW 5.8 mph - 0.00 in Snow Light Snow
6:16 PM 28.4 °F 22.2 °F 24.8 °F 86% 29.77 in 2.5 mi NNW 5.8 mph - 0.00 in Snow Light Snow
6:52 PM 28.9 °F 20.4 °F 24.1 °F 82% 29.83 in 1.8 mi NNW 9.2 mph - 0.00 in Snow Light Snow
7:40 PM 28.4 °F 20.4 °F 24.8 °F 86% 29.77 in 2.0 mi NW 8.1 mph - 0.00 in Snow Light Snow
7:50 PM 30.2 °F 24.3 °F 24.8 °F 80% 29.78 in 3.0 mi NNW 5.8 mph - 0.00 in Snow Light Snow
7:52 PM 30.0 °F 21.1 °F 25.0 °F 82% 29.83 in 3.0 mi NW 10.4 mph - 0.00 in Snow Light Snow
8:52 PM 30.0 °F 22.4 °F 24.1 °F 79% 29.81 in 7.0 mi NNW 8.1 mph - 0.00 in Snow Light Snow
9:52 PM 30.0 °F 23.2 °F 24.1 °F 79% 29.81 in 10.0 mi NNW 6.9 mph - 0.00 in   Overcast
10:09 PM 30.2 °F 23.4 °F 24.8 °F 80% 29.76 in 10.0 mi NNW 6.9 mph - N/A   Overcast
10:29 PM 30.2 °F 22.6 °F 24.8 °F 80% 29.76 in 10.0 mi NW 8.1 mph - N/A   Overcast
10:52 PM 30.0 °F 21.1 °F 24.1 °F 79% 29.81 in 7.0 mi NNW 10.4 mph - 0.00 in Snow Light Snow
11:01 PM 30.2 °F 21.9 °F 24.8 °F 80% 29.75 in 8.0 mi NNW 9.2 mph 17.3 mph 0.00 in   Overcast
11:09 PM 30.2 °F 23.4 °F 24.8 °F 80% 29.75 in 10.0 mi NNW 6.9 mph 16.1 mph 0.00 in   Overcast
11:52 PM 30.0 °F 21.7 °F 24.1 °F 79% 29.79 in 4.0 mi NNW 9.2 mph - 0.00 in Snow Light Snow